Doha, Qatar

7:52 AM +03 on March 25, 2017 (GMT +0300)
Doha

Weather History for 41170 - April, 2013

Change the Weather History Date:

Tuesday, April 23, 2013

  Actual Average Record
Temperature  
Mean Temperature 82 °F -  
Max Temperature 89 °F 98 °F - ()
Min Temperature 74 °F 75 °F - ()
Cooling Degree Days 16    
Growing Degree Days 32 (Base 50)    
Moisture  
Dew Point 51 °F    
Average Humidity 35    
Maximum Humidity 57    
Minimum Humidity 17    
Precipitation  
Precipitation 0.00 in 0.01 in - ()
Sea Level Pressure  
Sea Level Pressure 29.89 in    
Wind  
Wind Speed 10 mph ()    
Max Wind Speed 17 mph    
Max Gust Speed -    
Visibility 8.5 miles    
Events      
T = Trace of Precipitation, MM = Missing Value Source: Averaged Metar Reports

Daily Weather History Graph

Daily Weather History Graph

Search for Another Location

Airport or City:

Trip Planner

Search our weather history database for the weather conditions in past years. The results will help you decide how hot, cold, wet, or windy it might be!

Date:

Astronomy

Apr. 23, 2013 Rise Set
Actual Time 5:04 AM +03 6:00 PM +03
Civil Twilight 4:40 AM +03 6:24 PM +03
Nautical Twilight 4:12 AM +03 6:52 PM +03
Astronomical Twilight 3:43 AM +03 7:20 PM +03
Moon 3:41 PM +03 (4/23) 3:02 AM +03 (4/23)
Length of Visible Light 13h 43m
Length of Day
12h 56m
Waxing Gibbous, 92% of the Moon is Illuminated
Apr 23
Waxing Gibbous
Apr 25
Full
May 2
Last Quarter
May 10
New
May 18
First Quarter

Hourly Weather History & Observations

Time (+03) Temp. Heat Index Dew Point Humidity Pressure Visibility Wind Dir Wind Speed Gust Speed Precip Events Conditions
12:00 AM 77.0 °F - 51.8 °F 41% 29.86 in - North 11.5 mph - N/A   Clear
12:30 AM 77.0 °F - 51.8 °F 41% 29.86 in - North 10.4 mph - N/A   Clear
1:00 AM 77.0 °F - 51.8 °F 41% 29.86 in - North 11.5 mph - N/A   Clear
1:30 AM 77.0 °F - 51.8 °F 41% 29.83 in - North 11.5 mph - N/A   Clear
2:00 AM 77.0 °F - 51.8 °F 41% 29.83 in - North 11.5 mph - N/A   Clear
2:30 AM 77.0 °F - 53.6 °F 44% 29.83 in - North 10.4 mph - N/A   Clear
3:00 AM 76 °F - 56 °F 40% 29.85 in 7 mi North 9.2 mph - -  
3:00 AM 77.0 °F - 57.2 °F 50% 29.83 in - North 9.2 mph - N/A   Clear
3:30 AM 75.2 °F - 57.2 °F 53% 29.86 in - North 8.1 mph - N/A   Clear
4:00 AM 75.2 °F - 53.6 °F 47% 29.86 in - North 9.2 mph - N/A   Clear
4:30 AM 77.0 °F - 51.8 °F 41% 29.86 in - North 11.5 mph - N/A   Clear
5:00 AM 77.0 °F - 53.6 °F 44% 29.86 in - North 9.2 mph - N/A   Clear
5:30 AM 75.2 °F - 59.0 °F 57% 29.86 in - North 8.1 mph - N/A   Clear
6:00 AM 77.0 °F - 53.6 °F 44% 29.86 in - North 12.7 mph - N/A   Clear
6:30 AM 78.8 °F - 55.4 °F 44% 29.86 in - North 12.7 mph - N/A   Clear
7:00 AM 80.6 °F - 51.8 °F 37% 29.89 in - NNE 13.8 mph - N/A   Clear
7:30 AM 80.6 °F - 50.0 °F 34% 29.89 in - North 15.0 mph - N/A   Clear
8:00 AM 82.4 °F - 50.0 °F 32% 29.92 in - North 15.0 mph - N/A   Clear
8:30 AM 82.4 °F - 48.2 °F 30% 29.92 in - NNE 15.0 mph - N/A   Clear
9:00 AM 83 °F - 52 °F 23% 29.93 in 10 mi NNE 13.8 mph - -  
9:00 AM 84.2 °F - 51.8 °F 33% 29.92 in - NNE 13.8 mph - N/A   Clear
9:30 AM 84.2 °F - 50.0 °F 30% 29.92 in - North 13.8 mph - N/A   Clear
10:00 AM 84.2 °F - 48.2 °F 29% 29.92 in - North 17.3 mph - N/A   Clear
11:00 AM 86.0 °F - 48.2 °F 27% 29.89 in - NNE 12.7 mph - N/A   Clear
12:00 PM 87.8 °F - 46.4 °F 24% 29.89 in - NNE 12.7 mph - N/A   Clear
1:00 PM 86.0 °F - 44.6 °F 23% 29.89 in - NE 10.4 mph - N/A   Clear
1:30 PM 86.0 °F - 46.4 °F 25% 29.89 in - NE 11.5 mph - N/A   Clear
2:00 PM 84.2 °F - 48.2 °F 29% 29.86 in - NE 10.4 mph - N/A   Clear
2:30 PM 86.0 °F - 46.4 °F 25% 29.86 in - NNE 11.5 mph - N/A   Clear
3:00 PM 86 °F - 48 °F 17% 29.87 in 10 mi NNE 9.2 mph - -   Partly Cloudy
3:00 PM 86.0 °F - 48.2 °F 27% 29.86 in - NNE 9.2 mph - N/A   Clear
3:30 PM 84.2 °F - 50.0 °F 30% 29.86 in - NNE 9.2 mph - N/A   Clear
4:00 PM 84.2 °F - 50.0 °F 30% 29.86 in - NNE 9.2 mph - N/A   Clear
4:30 PM 82.4 °F 81.4 °F 53.6 °F 37% 29.86 in - North 9.2 mph - N/A   Clear
5:00 PM 82.4 °F - 50.0 °F 32% 29.86 in - North 9.2 mph - N/A   Clear
6:00 PM 82.4 °F 81.4 °F 53.6 °F 37% 29.89 in - North 10.4 mph - N/A   Clear
6:30 PM 82.4 °F 81.4 °F 53.6 °F 37% 29.89 in - North 8.1 mph - N/A   Clear
7:00 PM 82.4 °F 81.7 °F 55.4 °F 39% 29.89 in - North 10.4 mph - N/A   Clear
7:30 PM 82.4 °F 81.4 °F 53.6 °F 37% 29.92 in - NNW 10.4 mph - N/A   Clear
8:00 PM 82.4 °F - 46.4 °F 28% 29.92 in - North 12.7 mph - N/A   Clear
8:30 PM 82.4 °F - 51.8 °F 35% 29.95 in - North 11.5 mph - N/A   Clear
9:00 PM 81 °F - 51 °F 24% 29.95 in 7 mi NNW 11.5 mph - -   Partly Cloudy
9:00 PM 80.6 °F - 50.0 °F 34% 29.95 in - NNW 11.5 mph - N/A   Clear
9:30 PM 80.6 °F - 48.2 °F 32% 29.95 in - NNW 10.4 mph - N/A   Clear
10:00 PM 80.6 °F - 48.2 °F 32% 29.95 in - NNW 11.5 mph - N/A   Clear
11:00 PM 78.8 °F - 57.2 °F 47% 29.95 in - NNW 13.8 mph - N/A   Clear